◎2004 YJ35の軌道と予報位置です



  離心率が0.99979と大きい小惑星です.久万の中村彰正氏は,2月27日に

18.1等,3月7日と30日に18.0等と観測していますが,小惑星状のようです.



2004 YJ35

Epoch 2005 Mar. 11.0 TT = JDT 2453440.5  

T 2005 Mar. 3.15185 TT                                  Nakano

q   1.7811735            (2000.0)            P               Q

z  +0.0001154      Peri.  136.89885     -0.40188759     -0.81505928

 +/-0.0000282      Node   328.25065     +0.46164815     +0.21324994

e   0.9997944      Incl.   52.47579     +0.79080171     -0.53870477

From 170 observations 2004 Dec. 31-2005 Mar. 30, mean residual 0".51.

   (1/a)org.= +0.000061, (1/a)fut.= +0.000841 (+/-0.000028), Q= 6.

Residuals in seconds of arc 

2004/                     050107 J87  0.6+  0.5+    050112 711  0.8-  0.0   

041231 704  0.1-  0.1-    050108 704  0.3-  0.2-    050112 711  0.1+  0.1+  

041231 704  0.3-  0.6-    050108 704  0.1-  0.5-    050112 097  0.2-  0.0   

041231 704  0.3-  0.5-    050108 704  0.7+  1.4-    050112 097  0.2-  0.0   

2005/                     050108 J87  0.2-  0.6+    050112 097  0.1-  0.2+  

050101 201  0.3-  0.3+    050108 J87  0.0   0.5+    050113 704  0.4+  0.8+  

050101 201  0.1+  0.4-    050108 J87  0.0   0.5+    050113 704  0.5-  0.2+  

050101 201  0.1+  0.1+    050108 J87  0.0   0.4+    050113 704  0.1+  0.1-  

050101 201  0.1-  0.1-    050109 649  0.4+  0.2-    050113 651  0.0   0.2-  

050101 J95 (0.9-  2.5-)   050109 649  0.4-  0.0     050113 651  0.2-  0.4-  

050101 J87  0.0   0.0     050109 649  0.2-  0.5+    050113 651  0.2-  0.2-  

050101 J95  0.6-  0.2+    050110 557  0.0   0.3+    050113 704  0.0   0.1+  

050101 J87  0.4+  0.1-    050110 557  0.2-  0.4-    050113 651  0.1+  0.1+  

050101 J87  1.6+  0.7-    050110 557  0.1+  0.2+    050113 704  0.4+  0.1+  

050101 J76  0.6-  0.4+    050110 201  0.1+  0.2+    050114 704  0.1-  0.9-  

050101 J76  0.2-  0.4-    050110 201  0.4-  0.4+    050114 704  0.4-  0.4-  

050101 J76  0.1+  0.3+    050110 J71  0.0   0.4-    050114 704  0.1-  0.2-  

050101 J76  0.1+  0.2+    050110 557  0.2+  0.6+    050114 704  0.3-  0.1+  

050101 J76  0.2-  1.0-    050110 201  0.1-  0.0     050114 J87  0.3+  0.2+  

050102 J95  0.1-  0.1+    050110 557  0.2-  0.1-    050114 J87  0.2+  0.4+  

050102 J95  0.0   0.2-    050110 J71  0.2-  0.5-    050122 J87  0.1-  0.9-  

050103 201  0.0   0.6-    050110 557  0.2-  0.1-    050122 J87  0.1+  0.1+  

050103 201  0.1+  0.1-    050110 557  0.1+  0.1-    050122 J87  0.5-  0.3-  

050103 201  0.1+  0.7-    050110 557  0.0   0.2-    050129 704  1.5+  1.7-  

050103 147  0.2+  0.3-    050110 A13  0.0   0.0     050129 704  0.6+  0.1+  

050103 147  0.4+  0.4-    050110 A13  0.5+  0.2-    050129 704  1.4+  0.2+  

050103 587  0.8+  0.8+    050110 J71  0.5-  0.5+    050129 704  1.6+  0.5+  

050103 587  0.3-  0.6-    050110 A13  0.2+  0.3+    050129 704  1.9+  1.2-  

050103 147  0.7+  0.7+    050110 A13  0.4-  0.2+    050131 704  0.7-  0.8-  

050103 587  0.8+  0.6+    050110 A13  0.3-  0.3+    050131 704  0.4-  0.8-  

050104 J95  0.2+  0.9+    050111 711  0.5-  0.1-    050131 704  0.9-  0.5-  

050104 A13  0.5-  0.9-    050111 711  0.2-  0.2-    050131 704  0.2+  0.1-  

050104 A13  1.8+  1.5+    050111 711  0.4+  0.2+    050131 704  0.9-  0.7-  

050104 J95  0.9-  0.8+    050111 290  0.3-  0.4+    050131 704  0.8-  0.1-  

050104 J95  0.1-  0.4-    050111 290  0.3-  0.3+    050131 704  1.3-  0.1-  

050104 A13  0.1-  0.5+    050111 290  0.4-  0.2-    050131 704  0.3+  0.4-  

050104 A13 (2.4+  2.0-)   050111 290  0.6-  0.2+    050202 704  0.7-  0.3+  

050106 704  0.2-  0.7-    050111 290  0.5-  0.2+    050202 704  0.2-  0.6+  

050106 704  0.7+  0.2+    050111 704  0.2-  0.5+    050202 704  0.5-  0.0   

050106 704  0.6-  0.6-    050111 704  0.4-  0.6+    050202 704  0.1+  0.1-  

050106 704  0.5-  1.6-    050111 704  0.1-  0.6-    050202 704  0.4-  0.7+  

050106 704  0.5-  0.1+    050111 704  0.0   0.7-    050202 704  0.1-  0.1+  

050106 046  0.9-  0.8-    050111 557  0.3+  0.1-    050202 704  0.4-  0.3+  

050106 046  0.2+  0.2-    050111 557  0.0   0.1-    050202 704  0.3+  0.1-  

050106 046  0.4-  0.6-    050111 557  0.0   0.1-    050227 360  0.1-  0.1-  

050106 046  0.7+  0.4+    050111 557  0.4-  0.1+    050227 360  0.1-  0.1+  

050106 046  0.2+  0.9+    050111 201  0.1-  0.1-    050227 360  0.2-  0.1+  

050106 046  0.5+  0.0     050111 557  0.1+  0.5+    050307 360  0.2-  0.1-  

050107 704  0.5-  0.2+    050111 557  0.5+  0.5+    050307 360  0.4-  0.1+  

050107 704  0.4-  0.9+    050111 201  0.2-  0.2-    050307 360  0.3-  0.1+  

050107 704  0.1+  0.2-    050111 587  0.1+  0.3-    050312 704  0.9+  0.2+  

050107 704  0.4+  0.2+    050111 587  0.0   0.3-    050312 704  0.3+  0.0   

050107 704  0.7-  0.2-    050111 587  0.5+  0.3-    050312 704  1.7+  0.4-  

050107 J87  0.1+  0.5+    050111 A13  1.0+  0.7+    050312 704  0.6+  0.2+  

050107 201  0.1-  0.0     050111 A13  1.0-  0.9+    050312 704  0.8+  0.2-  

050107 201  0.3+  0.1+    050112 A13  1.0+  0.7+    050330 360  0.6-  0.0   

050107 J87  0.3+  0.6+    050112 A13  0.2+  0.3+    050330 360  0.5-  0.3+  

050107 201  0.4+  0.1+    050112 711  0.4-  0.3+    050330 360  0.6-  0.0   

 

Date/        TT  R.A.(2000) Decl.     Delta   r     Daily motion  Mag.  Moon Age

              h    h  m       。  ,                      ,  / PA 。  V       。

2005 Apr.  5 12  06 42.93  +43 54.1   1.661  1.832    47.3 / 142  17.9  125  .14

           6 12  06 45.59  +43 16.7   1.673  1.835    46.9 / 142  17.9  112  .07

           7 12  06 48.21  +42 39.6   1.684  1.838    46.6 / 142  18.0   99  .02

           8 12  06 50.79  +42 02.8   1.696  1.841    46.3 / 142  18.0   86  .00

           9 12  06 53.33  +41 26.2   1.708  1.845    46.0 / 142  18.0   74  .01

          10 12  06 55.83  +40 49.9   1.720  1.848    45.6 / 142  18.0   61  .03

          11 12  06 58.29  +40 13.9   1.732  1.851    45.3 / 142  18.0   49  .08

          12 12  07 00.72  +39 38.2   1.744  1.855    45.0 / 142  18.0   37  .14

          13 12  07 03.11  +39 02.8   1.757  1.859    44.7 / 142  18.1   26  .22

          14 12  07 05.47  +38 27.7   1.770  1.862    44.3 / 142  18.1   16  .30

          15 12  07 07.80  +37 52.9   1.783  1.866    44.0 / 141  18.1   10  .40

          16 12  07 10.10  +37 18.4   1.796  1.870    43.7 / 141  18.1   14  .49

          17 12  07 12.37  +36 44.3   1.809  1.874    43.3 / 141  18.2   24  .58

          18 12  07 14.61  +36 10.4   1.823  1.878    43.0 / 141  18.2   34  .68

          19 12  07 16.82  +35 36.8   1.836  1.882    42.7 / 141  18.2   46  .76

          20 12  07 19.00  +35 03.6   1.850  1.886    42.4 / 141  18.2   57  .84

          21 12  07 21.16  +34 30.6   1.864  1.890    42.0 / 141  18.2   69  .91

          22 12  07 23.30  +33 58.0   1.878  1.894    41.7 / 141  18.3   81  .96

          23 12  07 25.41  +33 25.7   1.892  1.899    41.4 / 141  18.3   94  .99

          24 12  07 27.50  +32 53.7   1.906  1.903    41.1 / 140  18.3  107 1.00

          25 12  07 29.57  +32 22.0   1.921  1.908    40.8 / 140  18.3  120  .99

          26 12  07 31.62  +31 50.6   1.935  1.912    40.5 / 140  18.3  133  .95

          27 12  07 33.64  +31 19.5   1.950  1.917    40.1 / 140  18.4  147  .88

          28 12  07 35.65  +30 48.7   1.964  1.922    39.8 / 140  18.4  160  .80

          29 12  07 37.63  +30 18.2   1.979  1.926    39.5 / 140  18.4  174  .70

          30 12  07 39.60  +29 48.0   1.994  1.931    39.3 / 139  18.4  171  .59

     May   1 12  07 41.55  +29 18.1   2.009  1.936    39.0 / 139  18.5  158  .47

           2 12  07 43.48  +28 48.5   2.025  1.941    38.7 / 139  18.5  144  .36

           3 12  07 45.40  +28 19.2   2.040  1.946    38.4 / 139  18.5  131  .26

           4 12  07 47.30  +27 50.2   2.055  1.951    38.1 / 139  18.5  118  .17

           5 12  07 49.18  +27 21.4   2.071  1.957    37.9 / 139  18.5  104  .09

NAKANO

         **** Don't distribute anyone except personal use only ****

                (C) Copyright 2005 OAA/ComputingSection

write mail from CFAD0::NAKANO on 2005-04-04 04:05:00(JST).

 



戻ります。